Location: Bay Harbour
(38.2612°N, 75.2555°W)
Time: 02:29:45
(UTC+00:00)

USA 306 - Pass Details

Date: 29 October 2020
Orbit: 569 x 576 km, 54.0° (Epoch: 30 November)

Event Time Altitude Azimuth Distance (km) Brightness Sun altitude
Rises 22:43:37 0° 320° (NW) 2,790 6.8 -8.3°
Reaches altitude 10° 22:46:22 10° 338° (NNW) 1,888 5.7 -8.8°
Maximum altitude 22:49:36 20° 26° (NNE) 1,343 4.5 -9.5°
Enters shadow 22:52:08 13° 68° (ENE) 1,694 4.7 -10.0°
